Meath Environmental Platform

Observations for Trim Market St

Time AQI Temp °C Hum % Pres Pa CO μg/m³ H₂S μg/m³ NO μg/m³ NO₂ μg/m³ O₃ μg/m³ SO₂ μg/m³ PM1 μg/m³ PM2.5 μg/m³ PM10 μg/m³
Monday 13 July 2026
23:28 1 18.4 62 57,820 0 0 0 8.1 27.09 0 1.43 2.96 4.14
23:26 1 18.4 61 57,829 0 0 0 7.54 27.93 0 1.43 2.97 4.13
23:20 1 18.5 61 57,862 0 0 0 8.57 28.61 0 1.43 3.99 5.48
23:17 1 18.5 60 57,883 0 0 0 8.8 27.53 0 2.14 4.01 6.16
23:13 1 18.6 60 57,895 0 0 0 9.6 28.02 0 1.43 3.02 4.1
23:12 1 18.6 60 57,903 0 0 0 9.11 31.48 0 1.43 3.52 6.84
23:11 1 18.6 60 57,907 0 0 0 8.63 30.03 0 1.43 3.03 4.78
23:10 1 18.7 60 57,913 0 0 0 8.01 30.02 0 1.43 2.53 3.4
23:09 1 18.7 60 57,919 0 0 0 9.12 30.6 0 0.71 2.54 3.4
23:08 1 18.7 60 57,923 0 0 0 8.44 28.55 0 1.43 4.05 5.46
23:07 1 18.7 60 57,925 0 0 0 8.45 29.2 0 0 2.05 2.7
23:06 1 18.7 59 57,928 0 0 0 8.96 29.3 0 2.14 4.05 6.15
23:05 1 18.8 59 57,932 0 0 0 8.15 29.03 0 1.43 4.06 5.46
23:04 1 18.8 59 57,938 0 0.42 0 10.17 33.23 0 1.43 3.57 4.76
23:03 1 18.8 59 57,944 0 0 0 7.88 28.92 0 1.43 3.57 5.45
23:02 1 18.9 59 57,948 0 0 0 7.87 29.4 0 0.71 3.08 4.06
23:01 1 18.9 59 57,952 0 0 0 9.88 28.25 0 0.71 3.08 4.06
23:00 1 18.9 59 57,958 0 0 0 7.5 31.89 0 1.43 4.09 6.83
22:58 1 18.9 58 57,960 0 0.05 0 11.52 27.98 0 2.14 4.1 5.44
22:57 1 19 58 57,962 0 0 0 9.81 26.77 0 1.43 4.11 5.44